Tracking 18980 objects as of 22-Feb-2018
HD Live streaming from Space Station
objects crossing your sky now

GREB

Track GREB now!
10-day predictions
GREB is classified as:


NORAD ID: 731
Int'l Code: 1964-001E
Perigee: 904.2 km
Apogee: 926.7 km
Inclination: 69.9 °
Period: 103.2 minutes
Semi major axis: 7286 km
RCS: 0.526 m2 (medium)
Launch date: January 11, 1964
Source: United States (US)
Launch site: AIR FORCE WESTERN TEST RANGE (AFWTR)
aabbcc
Your satellite tracking list
Your tracking list is empty




NASA's NSSDC Master Catalog

Two Line Element Set (TLE):
1 00731U 64001E   18052.85614995 -.00000015  00000-0  28114-4 0  9992
2 00731  69.9069 309.2123 0015411 320.2160 108.9491 13.95810691754177
Source of the keplerian elements: AFSPC